Weather History for KDRT - May, 2013

Change the Weather History Date:

Monday, May 13, 2013

  Actual Average Record
Temperature  
Mean Temperature 72 °F 78 °F  
Max Temperature 87 °F 89 °F 104 °F (1995)
Min Temperature 56 °F 67 °F 49 °F (1926)
Degree Days  
Heating Degree Days 0 0  
Month to date heating degree days 4 0  
Since 1 July heating degree days 1013 1375  
Cooling Degree Days 7 13  
Month to date cooling degree days 124 155  
Year to date cooling degree days 550 484  
Growing Degree Days 21 (Base 50)    
Moisture  
Dew Point 52 °F    
Average Humidity 55    
Maximum Humidity 80    
Minimum Humidity 29    
Precipitation  
Precipitation 0.00 in 0.10 in 3.55 in (1958)
Month to date precipitation 0.40 1.00  
Year to date precipitation 2.15 5.39  
Sea Level Pressure  
Sea Level Pressure 30.15 in    
Wind  
Wind Speed 9 mph (SE)    
Max Wind Speed 21 mph    
Max Gust Speed 26 mph    
Visibility 10 miles    
Events      
T = Trace of Precipitation, MM = Missing Value Source: NWS Daily Summary

Daily Weather History Graph

Daily Weather History Graph

Search for Another Location

Airport or City:

Trip Planner

Search our weather history database for the weather conditions in past years. The results will help you decide how hot, cold, wet, or windy it might be!

Date:

Astronomy

May. 13, 2013 Rise Set
Actual Time 6:52 AM CDT 8:27 PM CDT
Civil Twilight 6:26 AM CDT 8:53 PM CDT
Nautical Twilight 5:55 AM CDT 9:24 PM CDT
Astronomical Twilight 5:23 AM CDT 9:57 PM CDT
Moon 9:41 AM CDT (5/13) 11:38 PM CDT (5/13)
Length of Visible Light 14h 27m
Length of Day
13h 35m
Waxing Crescent, 12% of the Moon is Illuminated
May 13
Waxing Crescent
May 17
First Quarter
May 24
Full
May 31
Last Quarter
Jun 8
New

Hourly Weather History & Observations

Time (CDT) Temp. Dew Point Humidity Pressure Visibility Wind Dir Wind Speed Gust Speed Precip Events Conditions
12:53 AM 64.9 °F 51.1 °F 61% 30.17 in 10.0 mi ENE 5.8 mph - N/A   Clear
1:53 AM 64.0 °F 51.1 °F 63% 30.17 in 10.0 mi ENE 4.6 mph - N/A   Clear
2:53 AM 63.0 °F 51.1 °F 65% 30.17 in 10.0 mi ENE 4.6 mph - N/A   Clear
3:53 AM 62.1 °F 50.0 °F 65% 30.16 in 10.0 mi NE 5.8 mph - N/A   Clear
4:53 AM 63.0 °F 48.0 °F 58% 30.16 in 10.0 mi NE 5.8 mph - N/A   Clear
5:53 AM 57.9 °F 50.0 °F 75% 30.17 in 10.0 mi Calm Calm - N/A   Clear
6:53 AM 57.9 °F 52.0 °F 81% 30.18 in 10.0 mi Calm Calm - N/A   Clear
7:53 AM 60.1 °F 53.1 °F 78% 30.19 in 10.0 mi Calm Calm - N/A   Clear
8:53 AM 64.9 °F 54.0 °F 68% 30.20 in 10.0 mi SSE 4.6 mph - N/A   Clear
9:53 AM 70.0 °F 54.0 °F 57% 30.22 in 10.0 mi South 3.5 mph - N/A   Scattered Clouds
10:53 AM 73.9 °F 52.0 °F 46% 30.22 in 10.0 mi SE 6.9 mph - N/A   Clear
11:53 AM 78.1 °F 55.0 °F 45% 30.21 in 10.0 mi South 8.1 mph - N/A   Partly Cloudy
12:53 PM 81.0 °F 52.0 °F 36% 30.19 in 10.0 mi SE 12.7 mph 19.6 mph N/A   Partly Cloudy
1:53 PM 82.4 °F 51.8 °F 35% 30.20 in 10.0 mi ESE 8.1 mph - N/A   Clear
3:53 PM 84.9 °F 51.1 °F 31% 30.12 in 10.0 mi SSE 19.6 mph 26.5 mph N/A   Clear
4:53 PM 84.9 °F 51.1 °F 31% 30.09 in 10.0 mi SE 10.4 mph 20.7 mph N/A   Clear
5:53 PM 86.0 °F 50.0 °F 29% 30.07 in 10.0 mi South 12.7 mph 24.2 mph N/A   Clear
6:53 PM 84.2 °F 51.8 °F 33% 30.10 in 10.0 mi SE 16.1 mph 23.0 mph N/A   Clear
7:53 PM 82.9 °F 51.1 °F 33% 30.07 in 10.0 mi SE 16.1 mph 23.0 mph N/A   Clear
8:53 PM 81.0 °F 52.0 °F 36% 30.09 in 10.0 mi SE 12.7 mph - N/A   Mostly Cloudy
9:53 PM 79.0 °F 53.1 °F 40% 30.11 in 10.0 mi SSE 10.4 mph - N/A   Partly Cloudy
10:53 PM 77.0 °F 53.1 °F 43% 30.12 in 10.0 mi SSE 11.5 mph - N/A   Clear
11:53 PM 75.0 °F 52.0 °F 44% 30.13 in 10.0 mi SE 11.5 mph - N/A   Clear